Powrót do katalogu

FENGYUN 1C DEB

AktywnySSO
NORAD 31473·DEBRIS·🇨🇳 China

Wystrzelony May 10, 1999 z Taiyuan Satellite Launch Center

Loading…

Następne Przeloty (najbliższe 24 godziny)

TLE

ŚwieżeSource: Space-Track

Epoka: Sep 14, 2026, 08:29 UTC

1 31473U 99025BVM 26257.35354348  .00001883  00000-0  71037-3 0  9991
2 31473  98.5236 290.3274 0062259 281.9005 144.7674 14.31463879734620

Śledź FENGYUN 1C DEB w czasie rzeczywistym z AllMySat

Download on the App Store